Regional Weather Roundup
Issued by NWS

Home | Current Version | Previous Version | Text Only | Print | Product List | Glossary On
Versions: 1 2 3 4 5 6 7 8 9 10 11 12 13 14 15 16 17 18 19 20 21 22 23 24 25 26 27 28 29 30 31 32 33 34 35 36 37 38 39 40 41 42 43 44 45 46 47 48 49 50
000
ASUS45 KBOI 312210
RWRID
WEATHER ROUNDUP FOR IDAHO
NATIONAL WEATHER SERVICE BOISE ID
300 PM MST SAT JAN 31 2015

NOTE: "FAIR" INDICATES FEW OR NO CLOUDS BELOW 12000 FEET
WITH NO SIGNIFICANT WEATHER AND/OR OBSTRUCTIONS TO VISIBILITY

IDZ012-014-312300-
SOUTHWEST IDAHO


CITY           SKY/WX    TMP DP  RH WIND       PRES   REMARKS
BOISE          SUNNY     47  31  53 NW14      30.15R
CALDWELL       SUNNY     52  30  43 NW14      30.17F
MOUNTAIN HOME  SUNNY     47  31  52 NW15      30.13S
$$

IDZ016-017-312300-
SOUTHCENTRAL IDAHO


CITY           SKY/WX    TMP DP  RH WIND       PRES   REMARKS
BURLEY         SUNNY     43  29  57 W13G21    30.10S
JEROME         CLOUDY    37  30  75 W10       30.12R WCI  30
TWIN FALLS     SUNNY     45  28  51 W17G24    30.11S
$$

IDZ019>023-312300-
SOUTHEAST IDAHO


CITY           SKY/WX    TMP DP  RH WIND       PRES   REMARKS
IDAHO FALLS    PTSUNNY   34  25  69 SW13      30.09S WCI  25
POCATELLO      PTSUNNY   37  29  72 W12       30.11F WCI  29
REXBURG        CLOUDY    29  24  82 S9        30.09R WCI  20
$$

IDZ006-010-011-018-031-032-312300-
CENTRAL IDAHO MOUNTAINS


CITY           SKY/WX    TMP DP  RH WIND       PRES   REMARKS
MCCALL         SUNNY     40  22  48 W5        30.12R
HAILEY         MOSUNNY   28  25  86 SE10      30.09S WCI  19
STANLEY          N/A     25   9  50 CALM      30.11F
SALMON         CLOUDY    28  19  69 N6        30.18S WCI  22
CHALLIS        SUNNY     30  18  60 CALM      30.13F
$$

IDZ002-004-006-007-026-312300-
NORTHERN IDAHO


CITY           SKY/WX    TMP DP  RH WIND       PRES   REMARKS
LEWISTON       CLOUDY    37  31  78 W5        30.31F WCI  33
LOWELL           N/A     40  28  62 S10G22    30.30S WCI  33
COEUR D`ALENE  CLOUDY    34  27  75 W7        30.26S WCI  28
MULLAN PASS    HAZE      25  20  81 VRB3      30.09S VSB 1/4
$$


USA.gov is the U.S. government's official web portal to all federal, state and local government web resources and services.